Flight Information

DEPARTURE
MISSOULA, MT
Elevation:
3205
Runways:
12/30 - 9501x150 - ASPH-G
8/26 - 4612x75 - ASPH-F
ATIS:
126.65
Ground:
121.9
Tower:
MISSOULA TOWER 118.4
DESTINATION
,
Elevation:
TPA:
1000 (est.)


6371.1 NM72° True-18° Var54° HDG

Flight Plan:
(click to file on line)

1. Type
2. Aircraft Identification
3. Aircraft Type / Special Equipment
4. True Airspeed
kts
5. Departure Airport
(ICAO code)
6. Arriving Airport
(ICAO code)
7. Cruising Altitude
ft
8. Alternate Airport
(ICAO code)
9. Route of Flight
10. Remarks


00:00:00 Departure ATIS: Destination ATIS:

Clearance Limit:
Route:
Altitude: Expect in minutes
Frequency:
Transponder: (7500 Hijack / 7600 Lost Comms / 7700 Emergency)


KMSO 261453Z 00000KT 10SM CLR 13/05 A3034 RMK AO2 SLP264 T01330050 50000
Time: 2022-06-26T14:53:00Z
1656255488
Winds: calm
Visibility: 10.0 sm
Clouds (AGL): CLR
Temperature: 13.3 C
Dew Point: 5.0 C
Pressure: 30.339567 in Hgbr


Notes:

Data extracted from FAA Digital Chart Supplement. Effective: 0901Z Thursday, 27 JAN 2022 to 0900z Thursday, 24 MAR 2022
Current ATIS data is provided courtisy of PilotEdge.